(289707) = 2005 GY227

Discovered at Catalina on 2005-04-15 by CSS.

Orbit

Orbit type: Main Belt

Note: WebGL enabled browser required.

epoch2023-09-13.0
epoch JD2460200.5
perihelion date2022-10-02.71824
perihelion JD2459855.21824
argument of perihelion (°)156.42261
ascending node (°)127.18825
inclination (°)12.13977
eccentricity0.0365888
perihelion distance (AU)3.0128434
Tisserand w.r.t. Jupiter3.2
ΔV w.r.t. Earth (km/sec)11.4
semimajor axis (AU)3.1272663
mean anomaly (°)61.53613
mean daily motion (°/day)0.17822010
aphelion distance (AU)3.242
period (years)5.53
P-vector [x]0.24245222
P-vector [y]-0.92021501
P-vector [z]-0.30728043
Q-vector [x]0.95558843
Q-vector [y]0.28120992
Q-vector [z]-0.08815741
absolute magnitude15.74
phase slope0.15
uncertainty0
referenceMPEC 2024-B173
observations used316
oppositions13
arc length (days)7312
first opposition used2003
last opposition used2024
residual rms (arc-secs)0.68
perturbers coarse indicatorM-v
perturbers precise indicator003Ek
first observation date used2003-12-25.0
last observation date used2024-01-01.0
computer nameMPCLINUX
JD of orbit computation2456670.728519
perihelion JD uncertainty (days)7.8095E-04
argument of perihelion uncertainty (°)1.3174E-04
ascending node uncertainty (°)2.9233E-05
inclination uncertainty (°)7.5423E-06
eccentricity uncertainty 1.0794E-07
perihelion distance uncertainty (AU)2.9385E-07
Minimum Orbit Intersection Distances (in AU)
for orbit epoch: 2460200.5, reference: E2024-BH3
Mercury2.56284
Venus2.28989
Earth1.99953
Mars1.53089
Jupiter1.94688
Saturn5.8378
Uranus15.275
Neptune26.7264

Observations

328 total observations over interval: 2003 12 25.445650 – 2024 01 01.09204
These data are available for download (format description).

Date (UT) J2000 RA J2000 Dec Magn Location Ref
2003 12 25.445650 10 27 33.679 +12 45 22.73 21.23 V 645 – Apache Point-Sloan Digital Sky Survey MPS 309347
2003 12 25.449122 10 27 33.700 +12 45 23.34 21.95   645 – Apache Point-Sloan Digital Sky Survey MPS 309347
2004 02 16.28328 10 06 52.20 +18 01 59.6 20.6 V 691 – Steward Observatory, Kitt Peak-Spacewatch MPS 309347
2004 02 16.30999 10 06 50.95 +18 02 11.2 20.5 V 691 – Steward Observatory, Kitt Peak-Spacewatch MPS 309347
2004 02 16.34015 10 06 49.54 +18 02 24.3 20.6 V 691 – Steward Observatory, Kitt Peak-Spacewatch MPS 309347
2004 03 16.12494 09 47 16.66 +20 49 44.3 21.1 V 691 – Steward Observatory, Kitt Peak-Spacewatch MPS 309347
2004 03 16.15158 09 47 15.82 +20 49 50.7 20.9 V 691 – Steward Observatory, Kitt Peak-Spacewatch MPS 309347
2004 03 16.17880 09 47 14.95 +20 49 57.3 21.1 V 691 – Steward Observatory, Kitt Peak-Spacewatch MPS 309347
2005 04 15.37041 15 38 49.24 -01 44 28.5 19.0 R 703 – Catalina Sky Survey MPS 309347
2005 04 15.37902 15 38 49.16 -01 44 25.5 18.4 R 703 – Catalina Sky Survey MPS 309347
2005 04 15.38759 15 38 48.75 -01 44 20.1 19.9 R 703 – Catalina Sky Survey MPS 309347
2005 04 15.39622 15 38 48.47 -01 44 20.1 19.2 R 703 – Catalina Sky Survey MPS 309347
2005 05 04.36187 15 26 44.01 -00 26 44.0 20.7 V 703 – Catalina Sky Survey MPS 309347
2005 05 04.37146 15 26 43.58 -00 26 43.1 20.3 V 703 – Catalina Sky Survey MPS 309347
2005 05 04.38103 15 26 43.04 -00 26 40.8 20.8 V 703 – Catalina Sky Survey MPS 309347
2005 05 04.39059 15 26 42.75 -00 26 38.7 20.7 V 703 – Catalina Sky Survey MPS 309347
2005 05 15.29176 15 18 23.86 +00 00 26.5 19.6   644 – Palomar Mountain/NEAT MPS 309347
2005 05 15.31320 15 18 22.85 +00 00 29.1 19.7   644 – Palomar Mountain/NEAT MPS 309347
2005 05 15.33303 15 18 21.93 +00 00 30.6 20.1   644 – Palomar Mountain/NEAT MPS 309347
2006 06 19.42400 21 38 41.38 -13 49 29.8 20.5 V G96 – Mt. Lemmon Survey MPS 309347
2006 06 19.43341 21 38 41.42 -13 49 31.4 20.3 V G96 – Mt. Lemmon Survey MPS 309347
2006 06 19.44285 21 38 41.38 -13 49 33.2 20.3 V G96 – Mt. Lemmon Survey MPS 309347
2006 06 19.45221 21 38 41.38 -13 49 35.2 20.4 V G96 – Mt. Lemmon Survey MPS 309347
2006 08 17.20454 21 10 17.14 -19 40 44.3 21.1 R 644 – Palomar Mountain/NEAT MPS 309347
2006 08 17.22537 21 10 16.19 -19 40 52.9 20.1 R 644 – Palomar Mountain/NEAT MPS 309347
2006 08 17.24599 21 10 15.25 -19 41 01.0 20.0 R 644 – Palomar Mountain/NEAT MPS 309347
2009 01 18.28962 07 14 58.81 +17 21 15.9 20.0 V G96 – Mt. Lemmon Survey MPS 309347
2009 01 18.29542 07 14 58.56 +17 21 17.4 20.0 V G96 – Mt. Lemmon Survey MPS 309347
2009 01 18.30130 07 14 58.27 +17 21 19.1 19.9 V G96 – Mt. Lemmon Survey MPS 309347
2009 01 18.30711 07 14 57.98 +17 21 20.5 19.8 V G96 – Mt. Lemmon Survey MPS 309347
2010 03 12.44499 12 44 17.52 +10 45 51.4 20.4 V 703 – Catalina Sky Survey MPS 317913
2010 03 12.45080 12 44 17.41 +10 45 53.4 21.1 V 703 – Catalina Sky Survey MPS 317913
2010 03 12.45663 12 44 17.30 +10 45 57.3 21.2 V 703 – Catalina Sky Survey MPS 317913
2010 03 12.46248 12 44 16.98 +10 46 00.0 20.8 V 703 – Catalina Sky Survey MPS 317913
2010 03 23.18470 12 37 16.14 +12 04 17.9 19.8 V G96 – Mt. Lemmon Survey MPS 319323
2010 03 23.19184 12 37 15.70 +12 04 21.0 19.6 V G96 – Mt. Lemmon Survey MPS 319323
2010 03 23.19897 12 37 15.52 +12 04 23.5 20.3 V G96 – Mt. Lemmon Survey MPS 319323
2010 03 23.20609 12 37 15.16 +12 04 26.0 20.5 V G96 – Mt. Lemmon Survey MPS 319323
2010 03 23.21359 12 37 14.88 +12 04 29.7 20.1 V G96 – Mt. Lemmon Survey MPS 319323
2010 03 23.22077 12 37 14.55 +12 04 32.5 20.2 V G96 – Mt. Lemmon Survey MPS 319323
2010 03 23.22795 12 37 14.23 +12 04 35.6 20.1 V G96 – Mt. Lemmon Survey MPS 319323
2010 03 23.23510 12 37 13.94 +12 04 38.4 20.2 V G96 – Mt. Lemmon Survey MPS 319323
2013 11 29.52438 04 53 31.259 +07 59 42.35 20.2 w F51 – Pan-STARRS 1, Haleakala MPS 490891
2013 11 29.53851 04 53 30.542 +07 59 42.15 20.2 w F51 – Pan-STARRS 1, Haleakala MPS 490891
2013 11 29.55260 04 53 29.812 +07 59 42.18 20.3 w F51 – Pan-STARRS 1, Haleakala MPS 490891
2013 12 01.63964 04 51 46.27 +07 59 23.4 20.5 R D29 – Purple Mountain Observatory, XuYi Station MPS 490891
2013 12 01.65555 04 51 45.48 +07 59 24.3 20.1 R D29 – Purple Mountain Observatory, XuYi Station MPS 490891
2013 12 07.50038 04 46 52.405 +08 00 58.81 20.6 g F51 – Pan-STARRS 1, Haleakala MPS 491939
2013 12 07.51294 04 46 51.753 +08 00 59.38 20.4 g F51 – Pan-STARRS 1, Haleakala MPS 491939
2013 12 11.37950 04 43 39.890 +08 04 01.52 20.0 i F51 – Pan-STARRS 1, Haleakala MPS 491939
2013 12 11.40659 04 43 38.521 +08 04 03.25 20.1 r F51 – Pan-STARRS 1, Haleakala MPS 491939
2013 12 11.41933 04 43 37.874 +08 04 03.86 20.1 r F51 – Pan-STARRS 1, Haleakala MPS 491939
2014 01 01.21834 04 28 49.28 +08 47 28.0 20.4 V G96 – Mt. Lemmon Survey MPS 495119
2014 01 01.22898 04 28 48.89 +08 47 30.0 20.1 V G96 – Mt. Lemmon Survey MPS 495119
2014 01 01.23961 04 28 48.51 +08 47 32.1 20.4 V G96 – Mt. Lemmon Survey MPS 495119
2014 01 01.25025 04 28 48.15 +08 47 34.1 20.3 V G96 – Mt. Lemmon Survey MPS 495119
2014 11 27.55534 10 03 13.890 +12 47 48.46 21.4 w F51 – Pan-STARRS 1, Haleakala MPS 551289
2014 11 27.56838 10 03 14.305 +12 47 48.29 21.1 w F51 – Pan-STARRS 1, Haleakala MPS 551289
2014 11 27.58133 10 03 14.717 +12 47 48.19 21.5 w F51 – Pan-STARRS 1, Haleakala MPS 551289
2014 11 27.59433 10 03 15.126 +12 47 47.99 21.5 w F51 – Pan-STARRS 1, Haleakala MPS 551289
2014 11 29.55321 10 04 18.498 +12 47 25.33 21.4 w F51 – Pan-STARRS 1, Haleakala MPS 551289
2014 11 29.56628 10 04 18.897 +12 47 25.53 21.4 w F51 – Pan-STARRS 1, Haleakala MPS 551289
2014 11 29.57928 10 04 19.289 +12 47 25.37 21.3 w F51 – Pan-STARRS 1, Haleakala MPS 551289
2014 11 29.59225 10 04 19.682 +12 47 25.47 21.5 w F51 – Pan-STARRS 1, Haleakala MPS 551289
2015 01 18.44868 10 06 07.78 +15 26 26.7 19.7 V G96 – Mt. Lemmon Survey MPS 566917
2015 01 18.45358 10 06 07.62 +15 26 28.8 20.1 V G96 – Mt. Lemmon Survey MPS 566917
2015 01 18.45847 10 06 07.48 +15 26 30.3 20.0 V G96 – Mt. Lemmon Survey MPS 566917
2015 01 18.46337 10 06 07.33 +15 26 32.3 20.1 V G96 – Mt. Lemmon Survey MPS 566917
2015 01 19.32074 10 05 42.68 +15 32 02.2 20.9 V 691 – Steward Observatory, Kitt Peak-Spacewatch MPS 566917
2015 01 19.34096 10 05 42.06 +15 32 09.6 20.6 V 691 – Steward Observatory, Kitt Peak-Spacewatch MPS 566917
2015 01 19.36121 10 05 41.43 +15 32 17.7 20.9 V 691 – Steward Observatory, Kitt Peak-Spacewatch MPS 566917
2015 01 19.43955 10 05 38.97 +15 32 48.1 20.1 r G45 – Space Surveillance Telescope, Atom Site MPS 579576
2015 01 19.44362 10 05 38.91 +15 32 49.6 20.4 r G45 – Space Surveillance Telescope, Atom Site MPS 579576
2015 01 19.44861 10 05 38.77 +15 32 50.9 20.9 r G45 – Space Surveillance Telescope, Atom Site MPS 579576
2015 01 19.45703 10 05 38.47 +15 32 54.7 20.7 r G45 – Space Surveillance Telescope, Atom Site MPS 579576
2015 01 19.46286 10 05 38.33 +15 32 57.4 20.5 r G45 – Space Surveillance Telescope, Atom Site MPS 579576
2015 01 20.42794 10 05 09.468 +15 39 13.98 20.4 w F51 – Pan-STARRS 1, Haleakala MPS 566917
2015 01 20.44650 10 05 08.871 +15 39 21.32 20.4 w F51 – Pan-STARRS 1, Haleakala MPS 566917
2015 01 20.45988 10 05 08.444 +15 39 26.66 20.4 w F51 – Pan-STARRS 1, Haleakala MPS 566917
2015 01 20.47334 10 05 08.011 +15 39 31.86 20.5 w F51 – Pan-STARRS 1, Haleakala MPS 566917
2015 01 24.42608 10 02 58.57 +16 05 59.8 20.1 r G45 – Space Surveillance Telescope, Atom Site MPS 579576
2015 01 24.43016 10 02 58.42 +16 06 02.1 20.9 r G45 – Space Surveillance Telescope, Atom Site MPS 579576
2015 01 24.43939 10 02 58.08 +16 06 06.0 20.2 r G45 – Space Surveillance Telescope, Atom Site MPS 579576
2015 01 24.44364 10 02 57.94 +16 06 08.3 19.9 r G45 – Space Surveillance Telescope, Atom Site MPS 579576
2015 01 24.44946 10 02 57.77 +16 06 10.3 19.9 r G45 – Space Surveillance Telescope, Atom Site MPS 579576
2015 01 24.45354 10 02 57.62 +16 06 11.4 19.9 r G45 – Space Surveillance Telescope, Atom Site MPS 579576
2015 01 25.42022 10 02 23.64 +16 12 50.0 20.7 r G45 – Space Surveillance Telescope, Atom Site MPS 579576
2015 01 25.42430 10 02 23.49 +16 12 51.9 20.6 r G45 – Space Surveillance Telescope, Atom Site MPS 579576
2015 01 25.42925 10 02 23.31 +16 12 54.1 20.4 r G45 – Space Surveillance Telescope, Atom Site MPS 579576
